QPF
0.00 0.00 0.00 0.00 0.00 0.00 0.00 0.00 0.00 0.00 0.00 0.00 0.00 0.00 0.00 0.00 0.00 0.00 0.00 0.00 0.00 0.00 0.00 0.00 0.00 0.00 0.00 0.00 0.00 0.00 0.00 0.00 0.00 0.00 0.00 0.00 0.00 0.00 0.00 0.00 0.00 0.00 0.00 0.00
0.00 0.00 0.00 0.00 0.00 0.00 0.00 0.00 0.00 0.00 0.00 0.00 0.00 0.00 0.00 0.00 0.00 0.00 0.00 0.00 0.00 0.00 0.00 0.00 0.00 0.00 0.00 0.00 0.00 0.00 0.00 0.00 0.00 0.00 0.00 0.00 0.00 0.00 0.00 0.00 0.00 0.00 0.00 0.00
0.00 0.00 0.00 0.00 0.00 0.00 0.00 0.00 0.00 0.00 0.00 0.00 0.00 0.00 0.00 0.00 0.00 0.00 0.00 0.00 0.00 0.00 0.00 0.00 0.00 0.00 0.00 0.00 0.00 0.00 0.00 0.00 0.00 0.00 0.00 0.00 0.00 0.00 0.00 0.00 0.00 0.00 0.00 0.00
0.00 0.00 0.00 0.00 0.00 0.00 0.00 0.00 0.00 0.00 0.00 0.00 0.00 0.00 0.00 0.00 0.00 0.00 0.00 0.00 0.00 0.00 0.00 0.00 0.00 0.00 0.00 0.00 0.00 0.00 0.00 0.00 0.00 0.00 0.00 0.00 0.00 0.00 0.00 0.00 0.00 0.00 0.00 0.00
0.00 0.00 0.00 0.00 0.00 0.00 0.00 0.00 0.00 0.00 0.00 0.00 0.00 0.00 0.00 0.00 0.00 0.00 0.00 0.00 0.00 0.00 0.00 0.00 0.00 0.00 0.00 0.00 0.00 0.00 0.00 0.00 0.00 0.00 0.00 0.00 0.00 0.00 0.00 0.00 0.00 0.00 0.00 0.00
0.00 0.00 0.00 0.00 0.00 0.00 0.00 0.00 0.00 0.00 0.00 0.00 0.00 0.00 0.00 0.00 0.00 0.00 0.00 0.00 0.00 0.00 0.00 0.00 0.00 0.00 0.00 0.00 0.00 0.00 0.00 0.00 0.00 0.00 0.00 0.00 0.00 0.00 0.00 0.00 0.00 0.00 0.00 0.00
0.00 0.00 0.00 0.00 0.00 0.00 0.00 0.00 0.00 0.00 0.00 0.00 0.00 0.00 0.00 0.00 0.00 0.00 0.00 0.00 0.00 0.00 0.00 0.00 0.00 0.00 0.00 0.00 0.00 0.00 0.00 0.00 0.00 0.00 0.00 0.00 0.00 0.00 0.00 0.00 0.00 0.00 0.00 0.00
0.00 0.00 0.00 0.00 0.00 0.00 0.00 0.00 0.00 0.00 0.00 0.00 0.00 0.00 0.00 0.00 0.00 0.00 0.00 0.00 0.00 0.00 0.00 0.00 0.00 0.00 0.00 0.00 0.00 0.00 0.00 0.00 0.00 0.00 0.00 0.00 0.00 0.00 0.00 0.00 0.00 0.00 0.00 0.00
0.00 0.00 0.00 0.00 0.00 0.00 0.00 0.00 0.00 0.00 0.00 0.00 0.00 0.00 0.00 0.00 0.00 0.00 0.00 0.00 0.00 0.00 0.00 0.00 0.00 0.00 0.00 0.00 0.00 0.00 0.00 0.00 0.00 0.00 0.00 0.00 0.00 0.00 0.00 0.00 0.00 0.00 0.00 0.00
0.00 0.00 0.00 0.00 0.00 0.00 0.00 0.00 0.00 0.00 0.00 0.00 0.00 0.00 0.00 0.00 0.00 0.00 0.00 0.00 0.00 0.00 0.00 0.00 0.00 0.00 0.00 0.00 0.00 0.00 0.00 0.00 0.00 0.00 0.00 0.00 0.00 0.00 0.00 0.00 0.00 0.00 0.00 0.00
0.00 0.00 0.00 0.00 0.00 0.00 0.00 0.00 0.00 0.00 0.00 0.00 0.00 0.00 0.00 0.00 0.00 0.00 0.00 0.00 0.00 0.00 0.00 0.00 0.00 0.00 0.00 0.00 0.00 0.00 0.00 0.00 0.00 0.00 0.00 0.00 0.00 0.00 0.00 0.00 0.00 0.00 0.00 0.00
0.00 0.00 0.00 0.00 0.00 0.00 0.00 0.00 0.00 0.00 0.00 0.00 0.00 0.00 0.00 0.00 0.00 0.00 0.00 0.00 0.00 0.00 0.00 0.00 0.00 0.00 0.00 0.00 0.00 0.00 0.00 0.00 0.00 0.00 0.00 0.00 0.00 0.00 0.00 0.00 0.00 0.00 0.00 0.00
0.00 0.00 0.00 0.00 0.00 0.00 0.00 0.00 0.00 0.00 0.00 0.00 0.00 0.00 0.00 0.00 0.00 0.00 0.00 0.00 0.00 0.00 0.00 0.00 0.00 0.00 0.00 0.00 0.00 0.00 0.00 0.00 0.00 0.00 0.00 0.00 0.00 0.00 0.00 0.00 0.00 0.00 0.00 0.00
0.00 0.00 0.00 0.00 0.00 0.00 0.00 0.00 0.00 0.00 0.00 0.00 0.00 0.00 0.00 0.00 0.00 0.00 0.00 0.00 0.00 0.00 0.00 0.00 0.00 0.00 0.00 0.00 0.00 0.00 0.00 0.00 0.00 0.00 0.00 0.01 0.01 0.01 0.00 0.00 0.00 0.00 0.00 0.00
0.00 0.00 0.00 0.00 0.00 0.00 0.00 0.00 0.00 0.00 0.00 0.00 0.00 0.00 0.00 0.00 0.00 0.00 0.00 0.00 0.00 0.00 0.00 0.00 0.00 0.00 0.00 0.00 0.00 0.00 0.00 0.00 0.00 0.00 0.01 0.01 0.01 0.01 0.01 0.01 0.00 0.00 0.01 0.01
0.00 0.00 0.00 0.00 0.00 0.00 0.00 0.00 0.00 0.00 0.00 0.00 0.00 0.00 0.00 0.00 0.00 0.00 0.00 0.00 0.00 0.00 0.00 0.00 0.00 0.00 0.00 0.00 0.00 0.00 0.00 0.00 0.00 0.01 0.01 0.01 0.01 0.01 0.01 0.01 0.01 0.01 0.01 0.01
0.00 0.00 0.00 0.00 0.00 0.00 0.00 0.00 0.00 0.00 0.00 0.00 0.00 0.00 0.00 0.00 0.00 0.00 0.00 0.00 0.00 0.00 0.00 0.00 0.00 0.00 0.00 0.00 0.00 0.00 0.00 0.00 0.01 0.01 0.01 0.01 0.01 0.02 0.02 0.02 0.02 0.02 0.02 0.02
0.00 0.00 0.00 0.00 0.00 0.00 0.00 0.00 0.00 0.00 0.00 0.00 0.00 0.00 0.00 0.00 0.00 0.00 0.00 0.00 0.00 0.00 0.00 0.00 0.00 0.00 0.00 0.00 0.00 0.00 0.00 0.00 0.01 0.01 0.01 0.01 0.02 0.03 0.03 0.04 0.04 0.04 0.03 0.03
0.00 0.00 0.00 0.00 0.00 0.00 0.00 0.00 0.00 0.00 0.00 0.00 0.00 0.00 0.00 0.00 0.00 0.00 0.00 0.00 0.00 0.00 0.00 0.00 0.00 0.00 0.00 0.01 0.01 0.01 0.01 0.01 0.01 0.01 0.01 0.02 0.02 0.03 0.04 0.04 0.05 0.05 0.05 0.05
0.00 0.00 0.00 0.00 0.00 0.00 0.00 0.00 0.00 0.00 0.00 0.00 0.00 0.00 0.00 0.00 0.00 0.00 0.00 0.00 0.00 0.00 0.00 0.00 0.00 0.00 0.00 0.01 0.01 0.02 0.02 0.02 0.02 0.01 0.01 0.02 0.02 0.03 0.03 0.04 0.05 0.05 0.06 0.05
0.00 0.00 0.00 0.00 0.00 0.00 0.00 0.00 0.00 0.00 0.00 0.00 0.00 0.00 0.00 0.00 0.00 0.00 0.00 0.00 0.00 0.00 0.00 0.01 0.01 0.01 0.01 0.02 0.02 0.02 0.02 0.02 0.02 0.01 0.02 0.02 0.02 0.03 0.04 0.04 0.05 0.06 0.06 0.06
0.00 0.00 0.00 0.00 0.00 0.00 0.00 0.00 0.00 0.00 0.00 0.00 0.00 0.00 0.00 0.00 0.00 0.00 0.00 0.00 0.00 0.00 0.01 0.01 0.01 0.01 0.02 0.04 0.03 0.02 0.02 0.02 0.02 0.02 0.02 0.02 0.03 0.03 0.03 0.05 0.06 0.07 0.07 0.07
0.00 0.00 0.00 0.00 0.00 0.00 0.00 0.00 0.00 0.00 0.00 0.00 0.00 0.00 0.00 0.00 0.00 0.00 0.00 0.00 0.00 0.00 0.01 0.01 0.01 0.03 0.04 0.04 0.03 0.02 0.02 0.02 0.02 0.03 0.03 0.04 0.04 0.05 0.05 0.05 0.06 0.07 0.08 0.09
0.00 0.00 0.00 0.00 0.00 0.00 0.00 0.00 0.00 0.00 0.00 0.00 0.00 0.00 0.00 0.00 0.00 0.00 0.00 0.00 0.00 0.01 0.01 0.01 0.02 0.04 0.05 0.04 0.04 0.03 0.02 0.02 0.02 0.03 0.04 0.04 0.05 0.06 0.06 0.07 0.07 0.08 0.08 0.09
0.00 0.00 0.00 0.00 0.00 0.00 0.00 0.00 0.00 0.00 0.00 0.00 0.00 0.00 0.00 0.00 0.01 0.00 0.00 0.00 0.01 0.01 0.01 0.01 0.02 0.03 0.03 0.04 0.05 0.04 0.03 0.03 0.03 0.04 0.04 0.04 0.05 0.06 0.06 0.07 0.08 0.09 0.10 0.10
0.00 0.00 0.00 0.00 0.00 0.00 0.00 0.00 0.00 0.00 0.00 0.00 0.00 0.00 0.00 0.00 0.01 0.01 0.01 0.01 0.01 0.01 0.01 0.01 0.02 0.02 0.03 0.04 0.05 0.05 0.04 0.04 0.04 0.04 0.04 0.04 0.06 0.07 0.09 0.10 0.09 0.10 0.11 0.11
0.00 0.00 0.00 0.00 0.00 0.00 0.00 0.00 0.00 0.00 0.00 0.00 0.00 0.00 0.00 0.00 0.01 0.01 0.01 0.01 0.01 0.01 0.01 0.01 0.02 0.02 0.04 0.06 0.05 0.04 0.04 0.04 0.05 0.05 0.05 0.06 0.07 0.08 0.10 0.12 0.12 0.12 0.12 0.12
MSLP
1016.58 1016.91 1017.35 1017.87 1018.45 1019.00 1019.48 1019.82 1019.97 1019.91 1019.64 1019.19 1018.60 1017.94 1017.25 1016.59 1015.97 1015.40 1014.87 1014.36 1013.83 1013.26 1012.66 1012.01 1011.35 1010.71 1010.13 1009.64 1009.28 1009.07 1008.98 1009.03 1009.17 1009.38 1009.63 1009.90 1010.17 1010.43 1010.69 1010.94 1011.19 1011.44 1011.69 1011.93
1017.20 1017.50 1017.86 1018.27 1018.70 1019.13 1019.49 1019.75 1019.87 1019.84 1019.66 1019.36 1018.94 1018.46 1017.95 1017.44 1016.93 1016.43 1015.92 1015.39 1014.81 1014.18 1013.49 1012.75 1012.00 1011.27 1010.58 1009.98 1009.50 1009.14 1008.91 1008.80 1008.79 1008.87 1009.00 1009.18 1009.39 1009.63 1009.88 1010.15 1010.44 1010.73 1011.02 1011.31
1017.80 1018.06 1018.34 1018.65 1018.97 1019.28 1019.54 1019.73 1019.83 1019.83 1019.72 1019.52 1019.24 1018.90 1018.53 1018.13 1017.71 1017.26 1016.77 1016.23 1015.63 1014.97 1014.24 1013.46 1012.67 1011.88 1011.12 1010.44 1009.84 1009.35 1008.97 1008.69 1008.50 1008.41 1008.39 1008.44 1008.55 1008.73 1008.95 1009.22 1009.53 1009.86 1010.20 1010.53
1018.35 1018.55 1018.76 1018.99 1019.21 1019.43 1019.61 1019.75 1019.82 1019.83 1019.77 1019.64 1019.45 1019.20 1018.92 1018.60 1018.23 1017.82 1017.36 1016.83 1016.24 1015.57 1014.85 1014.08 1013.29 1012.48 1011.70 1010.96 1010.28 1009.66 1009.12 1008.67 1008.29 1008.01 1007.81 1007.70 1007.69 1007.76 1007.93 1008.17 1008.48 1008.84 1009.22 1009.61
1018.79 1018.93 1019.07 1019.22 1019.37 1019.51 1019.64 1019.74 1019.80 1019.81 1019.78 1019.69 1019.55 1019.36 1019.13 1018.84 1018.51 1018.13 1017.69 1017.18 1016.61 1015.98 1015.29 1014.56 1013.81 1013.03 1012.25 1011.48 1010.73 1010.01 1009.34 1008.71 1008.15 1007.67 1007.28 1007.00 1006.83 1006.79 1006.87 1007.07 1007.36 1007.72 1008.13 1008.56
1019.09 1019.16 1019.23 1019.31 1019.41 1019.50 1019.60 1019.68 1019.73 1019.75 1019.73 1019.67 1019.55 1019.39 1019.17 1018.91 1018.59 1018.22 1017.79 1017.31 1016.77 1016.19 1015.56 1014.90 1014.20 1013.47 1012.72 1011.94 1011.15 1010.36 1009.57 1008.80 1008.07 1007.40 1006.83 1006.37 1006.05 1005.87 1005.84 1005.96 1006.20 1006.55 1006.97 1007.43
1019.23 1019.22 1019.23 1019.26 1019.31 1019.39 1019.47 1019.55 1019.61 1019.65 1019.64 1019.59 1019.48 1019.32 1019.11 1018.84 1018.52 1018.15 1017.73 1017.27 1016.77 1016.24 1015.67 1015.07 1014.44 1013.77 1013.06 1012.29 1011.49 1010.64 1009.77 1008.89 1008.02 1007.20 1006.46 1005.84 1005.36 1005.04 1004.89 1004.91 1005.08 1005.37 1005.77 1006.23
1019.20 1019.11 1019.07 1019.07 1019.11 1019.18 1019.28 1019.37 1019.45 1019.51 1019.52 1019.48 1019.37 1019.21 1018.99 1018.70 1018.37 1017.99 1017.58 1017.13 1016.66 1016.16 1015.65 1015.11 1014.53 1013.91 1013.24 1012.50 1011.69 1010.83 1009.91 1008.95 1007.99 1007.06 1006.19 1005.43 1004.81 1004.35 1004.06 1003.96 1004.02 1004.24 1004.57 1005.00
1019.01 1018.87 1018.79 1018.77 1018.82 1018.92 1019.04 1019.17 1019.28 1019.36 1019.39 1019.36 1019.25 1019.08 1018.85 1018.55 1018.20 1017.80 1017.38 1016.93 1016.47 1015.99 1015.50 1014.99 1014.46 1013.87 1013.24 1012.53 1011.74 1010.88 1009.94 1008.96 1007.95 1006.95 1005.99 1005.13 1004.38 1003.79 1003.37 1003.13 1003.07 1003.16 1003.41 1003.76
1018.69 1018.52 1018.43 1018.43 1018.51 1018.64 1018.80 1018.97 1019.11 1019.22 1019.27 1019.24 1019.14 1018.96 1018.70 1018.39 1018.01 1017.60 1017.15 1016.69 1016.22 1015.74 1015.25 1014.75 1014.22 1013.66 1013.05 1012.36 1011.61 1010.77 1009.86 1008.88 1007.87 1006.84 1005.85 1004.91 1004.08 1003.37 1002.82 1002.44 1002.23 1002.18 1002.30 1002.56
1018.30 1018.14 1018.07 1018.11 1018.22 1018.40 1018.60 1018.80 1018.98 1019.10 1019.16 1019.13 1019.02 1018.83 1018.56 1018.22 1017.82 1017.38 1016.90 1016.41 1015.91 1015.40 1014.88 1014.36 1013.83 1013.26 1012.66 1012.00 1011.28 1010.49 1009.62 1008.69 1007.72 1006.71 1005.71 1004.75 1003.85 1003.06 1002.39 1001.87 1001.50 1001.31 1001.29 1001.42
1017.90 1017.77 1017.76 1017.85 1018.02 1018.23 1018.47 1018.69 1018.88 1019.00 1019.05 1019.02 1018.89 1018.67 1018.38 1018.01 1017.58 1017.11 1016.60 1016.07 1015.52 1014.97 1014.41 1013.85 1013.28 1012.70 1012.10 1011.46 1010.78 1010.04 1009.24 1008.38 1007.47 1006.52 1005.56 1004.60 1003.67 1002.81 1002.04 1001.40 1000.89 1000.55 1000.38 1000.39
1017.54 1017.49 1017.55 1017.70 1017.91 1018.16 1018.41 1018.63 1018.81 1018.91 1018.93 1018.86 1018.70 1018.46 1018.13 1017.74 1017.29 1016.78 1016.24 1015.66 1015.06 1014.45 1013.84 1013.23 1012.62 1012.01 1011.40 1010.77 1010.12 1009.44 1008.72 1007.95 1007.12 1006.25 1005.34 1004.40 1003.48 1002.58 1001.74 1001.00 1000.37 999.90 999.60 999.48
1017.29 1017.33 1017.46 1017.67 1017.92 1018.18 1018.42 1018.62 1018.75 1018.80 1018.77 1018.65 1018.45 1018.17 1017.81 1017.39 1016.91 1016.38 1015.80 1015.18 1014.53 1013.87 1013.20 1012.53 1011.87 1011.23 1010.60 1009.98 1009.36 1008.74 1008.08 1007.39 1006.66 1005.87 1005.02 1004.14 1003.23 1002.32 1001.44 1000.63 999.92 999.35 998.94 998.73
1017.17 1017.30 1017.51 1017.76 1018.02 1018.27 1018.47 1018.61 1018.67 1018.66 1018.55 1018.37 1018.12 1017.79 1017.41 1016.96 1016.46 1015.90 1015.29 1014.64 1013.95 1013.24 1012.51 1011.79 1011.09 1010.41 1009.76 1009.14 1008.55 1007.96 1007.37 1006.75 1006.09 1005.38 1004.60 1003.76 1002.88 1001.98 1001.09 1000.25 999.49 998.85 998.38 998.10
1017.17 1017.39 1017.65 1017.93 1018.18 1018.39 1018.53 1018.59 1018.56 1018.46 1018.27 1018.02 1017.71 1017.34 1016.92 1016.46 1015.94 1015.37 1014.74 1014.07 1013.35 1012.60 1011.83 1011.06 1010.32 1009.60 1008.93 1008.30 1007.72 1007.16 1006.60 1006.03 1005.43 1004.77 1004.04 1003.25 1002.40 1001.52 1000.64 999.79 999.02 998.36 997.87 997.56
1017.28 1017.56 1017.85 1018.12 1018.34 1018.49 1018.55 1018.51 1018.39 1018.18 1017.92 1017.59 1017.23 1016.83 1016.39 1015.91 1015.38 1014.81 1014.17 1013.49 1012.75 1011.97 1011.17 1010.37 1009.59 1008.85 1008.15 1007.51 1006.91 1006.35 1005.81 1005.26 1004.67 1004.04 1003.34 1002.57 1001.75 1000.89 1000.02 999.19 998.43 997.79 997.31 997.02
1017.42 1017.74 1018.04 1018.28 1018.44 1018.51 1018.47 1018.33 1018.11 1017.82 1017.47 1017.09 1016.69 1016.26 1015.81 1015.33 1014.80 1014.23 1013.61 1012.92 1012.17 1011.38 1010.57 1009.75 1008.94 1008.17 1007.44 1006.77 1006.15 1005.57 1005.00 1004.43 1003.83 1003.18 1002.48 1001.71 1000.89 1000.03 999.19 998.38 997.66 997.06 996.62 996.38
1017.54 1017.86 1018.13 1018.32 1018.41 1018.38 1018.24 1018.01 1017.70 1017.34 1016.93 1016.51 1016.08 1015.64 1015.19 1014.72 1014.21 1013.65 1013.03 1012.36 1011.61 1010.82 1010.00 1009.17 1008.34 1007.55 1006.79 1006.09 1005.42 1004.79 1004.18 1003.55 1002.90 1002.20 1001.45 1000.64 999.80 998.94 998.10 997.32 996.63 996.09 995.73 995.55
1017.56 1017.85 1018.07 1018.18 1018.18 1018.06 1017.83 1017.52 1017.14 1016.72 1016.28 1015.84 1015.40 1014.96 1014.53 1014.07 1013.58 1013.04 1012.44 1011.78 1011.05 1010.27 1009.45 1008.61 1007.78 1006.96 1006.18 1005.43 1004.72 1004.03 1003.34 1002.63 1001.89 1001.11 1000.28 999.40 998.51 997.62 996.77 996.00 995.36 994.88 994.59 994.50
1017.41 1017.64 1017.79 1017.82 1017.73 1017.52 1017.22 1016.84 1016.42 1015.97 1015.51 1015.07 1014.64 1014.22 1013.81 1013.37 1012.91 1012.39 1011.82 1011.17 1010.46 1009.69 1008.89 1008.05 1007.22 1006.39 1005.58 1004.80 1004.02 1003.26 1002.48 1001.67 1000.83 999.94 999.01 998.05 997.08 996.14 995.27 994.50 993.89 993.46 993.25 993.25
1017.05 1017.22 1017.28 1017.22 1017.05 1016.77 1016.41 1015.99 1015.54 1015.09 1014.64 1014.21 1013.80 1013.41 1013.02 1012.62 1012.17 1011.68 1011.13 1010.50 1009.81 1009.07 1008.28 1007.46 1006.63 1005.80 1004.98 1004.16 1003.33 1002.49 1001.63 1000.72 999.77 998.77 997.73 996.67 995.62 994.62 993.71 992.95 992.35 991.97 991.82 991.91
1016.50 1016.58 1016.55 1016.42 1016.17 1015.84 1015.44 1015.00 1014.55 1014.10 1013.68 1013.28 1012.90 1012.54 1012.18 1011.80 1011.38 1010.91 1010.38 1009.78 1009.11 1008.39 1007.63 1006.84 1006.02 1005.20 1004.37 1003.53 1002.66 1001.76 1000.82 999.83 998.78 997.68 996.54 995.39 994.27 993.22 992.28 991.51 990.93 990.59 990.50 990.66
1015.76 1015.76 1015.65 1015.44 1015.14 1014.77 1014.35 1013.91 1013.48 1013.06 1012.66 1012.30 1011.96 1011.64 1011.30 1010.94 1010.55 1010.10 1009.58 1009.01 1008.37 1007.68 1006.95 1006.18 1005.40 1004.60 1003.77 1002.92 1002.04 1001.11 1000.12 999.06 997.94 996.77 995.56 994.36 993.19 992.11 991.16 990.39 989.83 989.52 989.48 989.70
1014.90 1014.82 1014.64 1014.37 1014.03 1013.64 1013.22 1012.80 1012.38 1012.00 1011.65 1011.32 1011.02 1010.72 1010.41 1010.08 1009.70 1009.27 1008.77 1008.22 1007.61 1006.95 1006.26 1005.54 1004.79 1004.02 1003.22 1002.39 1001.50 1000.57 999.56 998.48 997.34 996.14 994.91 993.69 992.52 991.44 990.51 989.76 989.24 988.96 988.96 989.23
1013.97 1013.82 1013.59 1013.28 1012.91 1012.51 1012.10 1011.70 1011.32 1010.98 1010.66 1010.38 1010.11 1009.84 1009.55 1009.23 1008.87 1008.45 1007.98 1007.45 1006.87 1006.25 1005.59 1004.91 1004.21 1003.49 1002.73 1001.93 1001.08 1000.17 999.19 998.13 997.02 995.84 994.65 993.47 992.34 991.32 990.44 989.74 989.27 989.05 989.09 989.38
1013.03 1012.82 1012.55 1012.21 1011.83 1011.44 1011.05 1010.68 1010.34 1010.03 1009.75 1009.50 1009.25 1009.00 1008.73 1008.43 1008.07 1007.67 1007.22 1006.71 1006.16 1005.58 1004.97 1004.34 1003.69 1003.02 1002.31 1001.57 1000.78 999.93 999.01 998.02 996.98 995.89 994.78 993.70 992.67 991.74 990.96 990.36 989.96 989.80 989.88 990.20
Thickness
5701 5704 5703 5700 5698 5694 5689 5683 5674 5679 5677 5681 5686 5688 5690 5694 5697 5700 5701 5702 5703 5703 5704 5705 5706 5707 5707 5707 5706 5704 5701 5698 5696 5695 5692 5688 5685 5683 5680 5677 5676 5673 5671 5669
5696 5699 5698 5693 5693 5691 5687 5683 5679 5678 5676 5684 5685 5685 5686 5688 5690 5691 5692 5693 5695 5697 5698 5699 5701 5702 5703 5703 5702 5700 5698 5696 5695 5691 5689 5687 5684 5682 5679 5676 5674 5671 5669 5668
5682 5688 5694 5680 5687 5684 5680 5679 5677 5670 5672 5679 5679 5680 5679 5680 5681 5682 5683 5685 5687 5689 5690 5692 5694 5695 5696 5698 5697 5695 5694 5693 5691 5688 5686 5685 5683 5680 5677 5675 5672 5670 5668 5667
5673 5682 5673 5679 5689 5686 5678 5673 5674 5674 5673 5674 5675 5677 5677 5676 5674 5674 5676 5677 5679 5681 5684 5686 5688 5689 5690 5690 5689 5689 5688 5687 5687 5685 5683 5682 5679 5678 5676 5674 5671 5669 5667 5666
5663 5665 5668 5677 5683 5680 5675 5668 5669 5668 5669 5670 5672 5673 5671 5671 5668 5667 5668 5669 5671 5673 5675 5678 5680 5681 5681 5681 5681 5681 5682 5682 5682 5681 5680 5678 5677 5676 5675 5672 5670 5668 5667 5665
5659 5664 5660 5671 5682 5683 5675 5660 5666 5664 5662 5662 5662 5653 5656 5663 5662 5661 5661 5662 5663 5665 5667 5668 5670 5671 5670 5671 5671 5673 5675 5677 5677 5677 5676 5676 5676 5674 5673 5671 5669 5667 5665 5663
5653 5654 5658 5671 5675 5676 5656 5654 5660 5658 5655 5652 5647 5644 5649 5653 5653 5653 5653 5653 5654 5654 5655 5656 5658 5658 5658 5659 5661 5665 5667 5670 5670 5671 5671 5672 5672 5671 5669 5667 5665 5664 5663 5661
5645 5646 5651 5667 5666 5657 5652 5653 5653 5650 5648 5645 5642 5642 5642 5642 5642 5643 5643 5643 5643 5642 5642 5643 5645 5645 5646 5648 5652 5654 5656 5660 5662 5664 5665 5667 5666 5665 5664 5662 5660 5659 5658 5657
5651 5652 5656 5658 5656 5655 5651 5647 5645 5641 5640 5637 5635 5633 5632 5632 5631 5631 5630 5630 5629 5629 5629 5630 5631 5631 5632 5636 5639 5642 5645 5648 5652 5655 5656 5658 5659 5658 5657 5656 5656 5655 5654 5654
5644 5648 5651 5650 5649 5647 5644 5640 5637 5634 5631 5628 5623 5622 5621 5620 5619 5618 5618 5616 5616 5615 5615 5616 5617 5618 5619 5623 5626 5628 5631 5635 5639 5642 5646 5648 5649 5651 5651 5651 5651 5651 5651 5651
5637 5641 5641 5642 5639 5637 5635 5631 5627 5624 5620 5616 5613 5611 5609 5607 5606 5605 5604 5603 5602 5600 5600 5602 5603 5605 5606 5608 5610 5613 5617 5621 5625 5629 5633 5636 5639 5642 5645 5648 5650 5651 5651 5650
5632 5636 5631 5631 5632 5629 5624 5620 5617 5613 5609 5606 5602 5599 5597 5594 5593 5591 5590 5589 5588 5587 5587 5587 5588 5590 5592 5593 5595 5597 5602 5606 5610 5614 5619 5623 5626 5630 5634 5638 5642 5645 5647 5647
5633 5632 5627 5626 5623 5620 5615 5611 5607 5602 5598 5594 5591 5587 5584 5581 5579 5577 5576 5575 5574 5573 5573 5574 5575 5576 5578 5579 5580 5582 5586 5591 5596 5601 5605 5609 5613 5617 5621 5626 5630 5634 5638 5640
5624 5620 5616 5614 5611 5609 5604 5600 5596 5591 5587 5583 5578 5575 5571 5568 5566 5564 5562 5561 5561 5560 5560 5560 5561 5562 5564 5565 5567 5569 5572 5578 5583 5588 5592 5597 5601 5605 5609 5613 5617 5622 5627 5630
5614 5611 5607 5605 5600 5596 5592 5587 5582 5577 5574 5570 5566 5562 5559 5555 5553 5552 5551 5549 5548 5547 5547 5548 5548 5550 5552 5553 5554 5557 5560 5564 5569 5574 5579 5584 5589 5594 5597 5601 5606 5610 5613 5618
5603 5599 5595 5590 5586 5583 5578 5574 5569 5565 5561 5558 5553 5550 5547 5544 5541 5539 5538 5536 5534 5533 5534 5535 5536 5538 5539 5540 5541 5544 5548 5553 5557 5561 5566 5571 5576 5581 5585 5589 5593 5597 5602 5607
5589 5585 5581 5577 5573 5570 5566 5562 5557 5553 5548 5545 5541 5539 5535 5532 5529 5528 5527 5525 5523 5522 5522 5522 5524 5527 5528 5528 5529 5532 5535 5540 5544 5548 5551 5557 5563 5568 5573 5577 5581 5586 5592 5596
5582 5578 5573 5568 5563 5558 5554 5549 5545 5540 5536 5534 5531 5527 5522 5519 5517 5516 5516 5515 5513 5513 5513 5512 5513 5515 5517 5517 5518 5520 5523 5526 5531 5535 5539 5544 5550 5557 5562 5566 5572 5576 5580 5584
5570 5565 5561 5556 5552 5546 5541 5536 5533 5528 5525 5521 5518 5514 5511 5508 5505 5504 5504 5502 5500 5501 5505 5504 5505 5505 5505 5506 5508 5510 5512 5516 5519 5524 5528 5533 5538 5544 5550 5556 5561 5565 5570 5573
5556 5552 5547 5543 5539 5533 5529 5525 5521 5517 5514 5510 5506 5503 5500 5497 5495 5493 5491 5490 5489 5490 5493 5493 5494 5494 5495 5496 5499 5501 5503 5506 5509 5514 5518 5522 5527 5533 5539 5545 5551 5556 5560 5565
5541 5538 5534 5530 5526 5522 5518 5513 5509 5506 5503 5498 5493 5490 5488 5487 5484 5481 5479 5480 5484 5483 5482 5484 5484 5484 5485 5487 5491 5492 5494 5497 5500 5504 5508 5512 5517 5522 5528 5535 5542 5547 5552 5556
5527 5524 5521 5517 5513 5509 5506 5501 5497 5494 5491 5487 5483 5480 5477 5475 5473 5471 5470 5469 5472 5473 5473 5473 5473 5475 5478 5481 5482 5483 5486 5489 5492 5495 5499 5503 5508 5514 5520 5526 5533 5539 5544 5548
5512 5509 5506 5503 5500 5497 5494 5490 5486 5482 5479 5476 5472 5469 5466 5464 5461 5458 5462 5464 5462 5464 5464 5464 5465 5469 5472 5473 5474 5475 5477 5480 5483 5487 5491 5495 5500 5506 5512 5519 5525 5531 5536 5540
5499 5496 5494 5491 5487 5483 5480 5479 5476 5472 5469 5466 5463 5460 5456 5454 5454 5453 5451 5454 5455 5456 5456 5457 5459 5463 5466 5464 5465 5467 5469 5472 5475 5479 5484 5488 5493 5498 5504 5511 5517 5524 5529 5532
5487 5484 5481 5477 5474 5473 5471 5469 5465 5462 5459 5457 5455 5452 5449 5445 5444 5446 5445 5444 5446 5448 5449 5450 5453 5455 5455 5455 5457 5459 5462 5466 5469 5473 5477 5481 5486 5492 5498 5505 5512 5517 5522 5525
5475 5472 5470 5468 5465 5463 5460 5457 5454 5453 5450 5448 5447 5446 5443 5441 5438 5437 5437 5437 5438 5441 5441 5442 5443 5444 5445 5447 5449 5452 5455 5459 5462 5466 5470 5475 5480 5486 5492 5499 5506 5511 5515 5519
5463 5461 5458 5456 5455 5452 5449 5446 5444 5443 5441 5439 5438 5438 5436 5434 5433 5432 5431 5431 5431 5432 5433 5434 5436 5437 5438 5440 5442 5445 5448 5452 5456 5460 5465 5470 5476 5481 5487 5494 5499 5505 5509 5512